Date,TemperatureHighF,TemperatureAvgF,TemperatureLowF,DewpointHighF,DewpointAvgF,DewpointLowF,HumidityHigh,HumidityAvg,HumidityLow,PressureMaxIn,PressureMinIn,WindSpeedMaxMPH,WindSpeedAvgMPH,GustSpeedMaxMPH,PrecipitationSumIn
2013-11-1,49.8,45.7,40.4,49.5,45.4,40.4,100,99,92,29.75,29.41,21,6,23,0.00
2013-11-2,51.4,42.0,34.3,42.4,38.4,34.2,100,88,59,30.13,29.74,17,2,18,0.00
2013-11-3,53.8,40.6,29.0,43.5,35.1,29.0,100,83,50,30.26,30.12,18,3,20,0.00
2013-11-4,58.5,50.5,43.0,49.9,43.9,39.1,90,79,57,30.17,30.01,25,8,25,0.00
2013-11-5,55.3,53.1,50.4,55.1,52.7,49.7,100,99,90,30.21,29.86,27,5,27,0.27
2013-11-6,57.3,45.5,33.0,57.3,42.7,28.6,100,90,70,30.18,29.71,24,9,24,0.33
2013-11-7,42.4,35.0,28.1,36.6,32.9,28.1,100,92,75,30.23,30.16,17,4,18,0.00
2013-11-8,50.3,39.9,27.2,37.7,32.7,27.2,100,78,46,30.27,29.80,31,6,33,0.00
2013-11-9,58.1,48.9,40.0,44.9,39.3,28.0,91,70,56,30.12,29.78,32,12,36,0.00
2013-11-10,50.6,41.7,32.2,36.4,33.2,30.8,97,73,50,30.33,30.13,20,6,24,0.00
2013-11-11,46.9,35.7,21.4,39.0,31.2,18.3,100,84,65,30.53,30.05,16,4,19,0.04
2013-11-12,31.0,23.2,17.4,22.5,17.5,14.9,91,79,55,30.69,30.53,16,4,19,0.01
2013-11-13,43.2,30.0,17.7,24.9,20.5,16.3,96,70,37,30.55,30.08,24,9,26,0.00
2013-11-14,50.7,40.1,30.9,32.0,27.7,21.3,76,62,46,30.08,29.88,25,8,25,0.00
2013-11-15,56.0,44.2,36.7,41.3,34.3,28.7,99,70,46,29.93,29.85,21,7,21,0.00
2013-11-16,58.9,51.6,40.0,58.9,51.6,39.6,100,100,93,29.85,29.48,49,12,49,0.08
2013-11-17,70.7,53.8,41.4,69.2,53.1,39.0,100,98,83,29.75,29.14,35,13,41,0.22
2013-11-18,42.4,36.7,28.6,39.4,31.3,26.8,100,82,56,30.23,29.74,31,12,31,0.00
2013-11-19,43.0,32.7,22.6,34.5,28.5,22.6,100,86,58,30.31,30.19,16,4,16,0.00
2013-11-20,42.0,37.5,33.2,39.3,35.5,32.3,100,93,72,30.20,30.03,18,6,18,0.20
2013-11-21,46.4,42.6,39.4,46.4,42.6,39.4,100,100,100,30.22,30.05,12,2,12,0.00
2013-11-22,40.8,33.0,23.3,40.8,29.8,18.6,100,89,65,30.46,30.22,19,6,19,0.01
2013-11-23,23.4,19.4,11.1,20.0,10.9,5.4,91,70,49,30.68,30.41,26,7,26,0.00
2013-11-24,29.1,18.8,8.4,13.5,9.2,4.4,96,69,35,30.67,30.27,24,7,28,0.00
2013-11-25,32.9,28.2,20.7,32.5,25.9,13.5,100,92,67,30.27,30.03,25,9,28,0.00
2013-11-26,34.0,27.3,13.1,32.2,21.5,5.3,100,80,59,30.20,30.01,24,6,27,0.00
2013-11-27,25.6,18.6,10.8,17.6,11.0,4.1,80,72,63,30.26,30.17,16,5,16,0.00
2013-11-28,30.9,24.1,16.5,20.2,17.4,14.2,100,76,60,30.46,30.10,18,4,18,0.00
2013-11-29,35.1,24.3,10.0,25.6,18.6,9.4,100,81,57,30.57,30.31,18,3,18,0.00
2013-11-30,49.3,36.5,29.0,36.1,31.6,25.4,100,84,59,30.31,30.00,22,6,22,0.00